This demonstration page uses our WeatherBlox Daily Observations layout. Learn more.

Left ArrowRight Arrow

Hourly Observations for December 20, 2019

Temp ( °F °C ) Dew Point ( °F °C ) Humidity (%) Winds ( mph kmh ) Pressure ( in mb ) Visibility ( mi km ) Precip ( " mm )
12:51 am 00:51 Clear 32 undefined 25 -3.9 75 75 S 5 7 30.19 1022 10 16 N/A
1:51 am 01:51 Clear 30 -1.1 25 -3.9 82 82 E 5 7 30.22 1023 10 16 N/A
2:51 am 02:51 Clear 32 undefined 25 -3.9 75 75 NE 6 9 30.22 1023 10 16 N/A
3:51 am 03:51 Clear 30 -1.1 24 -4.4 79 79 ESE 5 7 30.22 1023 10 16 N/A
4:51 am 04:51 Clear 27 -2.8 24 -4.4 89 89 N N/A 30.24 1024 10 16 N/A
5:51 am 05:51 Clear 26 -3.3 23 -5 88 88 N N/A 30.27 1025 10 16 N/A
6:51 am 06:51 Clear 26 -3.3 22 -5.6 84 84 N N/A 30.32 1027 10 16 N/A
7:51 am 07:51 Sunny 28 -2.2 24 -4.4 85 85 N N/A 30.34 1027 10 16 N/A
8:51 am 08:51 Sunny 36 2.2 26 -3.3 67 67 N N/A 30.36 1028 10 16 N/A
9:51 am 09:51 Sunny 40 4.4 26 -3.3 58 58 SSE 5 7 30.35 1028 10 16 N/A
10:51 am 10:51 Sunny 46 7.8 25 -3.9 44 44 SE 7 11 30.35 1028 10 16 N/A
11:51 am 11:51 Sunny 50 10 23 -5 35 35 SE 9 15 30.31 1026 10 16 N/A
12:51 pm 12:51 Sunny 54 12.2 21 -6.1 28 28 S 5 7 30.27 1025 10 16 N/A
1:51 pm 13:51 Sunny 56 13.3 19 -7.2 24 24 S 3 6 30.26 1025 10 16 N/A
2:51 pm 14:51 Sunny 59 15 16 -8.9 18 18 N N/A 30.24 1024 10 16 N/A
3:51 pm 15:51 Sunny 59 15 13 -10.6 16 16 SE 3 6 30.25 1024 10 16 N/A
4:51 pm 16:51 Sunny 58 14.4 17 -8.3 20 20 N N/A 30.26 1025 10 16 N/A
5:51 pm 17:51 Clear 48 8.9 24 -4.4 39 39 E 5 7 30.29 1026 10 16 N/A
6:51 pm 18:51 Clear 45 7.2 24 -4.4 44 44 E 9 15 30.32 1027 10 16 N/A
7:51 pm 19:51 Clear 44 6.7 24 -4.4 45 45 E 8 13 30.34 1027 10 16 N/A
8:51 pm 20:51 Clear 41 5 25 -3.9 53 53 E 10 17 30.33 1027 10 16 N/A
9:51 pm 21:51 Clear 40 4.4 24 -4.4 53 53 E 9 15 30.35 1028 10 16 N/A
10:51 pm 22:51 Clear 42 5.6 23 -5 47 47 SE 8 13 30.35 1028 10 16 N/A
11:51 pm 23:51 Clear 41 5 23 -5 49 49 SE 8 13 30.34 1027 10 16 N/A

Powered by AerisWeather